| time (UTC) | temp C | wind direction | speed KPH | gust KPH | rain 1hr cm | rain 24hr cm | rain mn cm | humidity % | barometer mb |
| 20260507213805 | 8 | 130 | 0.0 | 1.6 | 0.00 | 0.00 | 0.00 | 91 | 1015.8 |
| 20260507213306 | 8 | 4 | 1.6 | 3.2 | 0.00 | 0.00 | 0.00 | 91 | 1015.9 |
| 20260507211806 | 9 | 121 | 1.6 | 4.8 | 0.00 | 0.00 | 0.00 | 88 | 1015.4 |
| 20260507211306 | 9 | 119 | 1.6 | 3.2 | 0.00 | 0.00 | 0.00 | 88 | 1015.7 |
| 20260507210804 | 10 | 120 | 0.0 | 0.0 | 0.00 | 0.00 | 0.00 | 87 | 1015.5 |
| 20260507210305 | 10 | 103 | 1.6 | 8.0 | 0.00 | 0.00 | 0.00 | 87 | 1015.2 |
| 20260507204805 | 10 | 108 | 1.6 | 4.8 | 0.00 | 0.00 | 0.00 | 86 | 1015.1 |
| 20260507204304 | 10 | 95 | 1.6 | 4.8 | 0.00 | 0.00 | 0.00 | 86 | 1015.2 |
| 20260507203806 | 10 | 111 | 3.2 | 4.8 | 0.00 | 0.00 | 0.00 | 86 | 1015.2 |
| 20260507203305 | 10 | 97 | 3.2 | 4.8 | 0.00 | 0.00 | 0.00 | 86 | 1015.1 |
| 20260507201805 | 11 | 102 | 1.6 | 3.2 | 0.00 | 0.00 | 0.00 | 86 | 1014.8 |
| 20260507201305 | 11 | 105 | 1.6 | 3.2 | 0.00 | 0.00 | 0.00 | 85 | 1014.8 |
| 20260507194806 | 11 | 89 | 1.6 | 4.8 | 0.00 | 0.00 | 0.00 | 83 | 1014.2 |
| 20260507194306 | 12 | 110 | 1.6 | 8.0 | 0.00 | 0.00 | 0.00 | 83 | 1014.2 |
| 20260507193806 | 11 | 102 | 3.2 | 4.8 | 0.00 | 0.00 | 0.00 | 83 | 1014.0 |
| 20260507193305 | 12 | 105 | 4.8 | 8.0 | 0.00 | 0.00 | 0.00 | 83 | 1014.1 |
| 20260507191805 | 12 | 118 | 1.6 | 3.2 | 0.00 | 0.00 | 0.00 | 82 | 1014.1 |
| 20260507191305 | 12 | 116 | 3.2 | 3.2 | 0.00 | 0.00 | 0.00 | 82 | 1013.6 |
| 20260507190805 | 13 | 112 | 1.6 | 3.2 | 0.00 | 0.00 | 0.00 | 80 | 1013.8 |
| 20260507190304 | 13 | 19 | 0.0 | 3.2 | 0.00 | 0.00 | 0.00 | 79 | 1013.7 |
| 20260507184804 | 13 | 87 | 1.6 | 3.2 | 0.00 | 0.00 | 0.00 | 77 | 1013.5 |
| 20260507184306 | 14 | 121 | 3.2 | 3.2 | 0.00 | 0.00 | 0.00 | 75 | 1013.5 |
| 20260507183805 | 14 | 129 | 0.0 | 1.6 | 0.00 | 0.00 | 0.00 | 72 | 1013.4 |
| 20260507181805 | 16 | 272 | 0.0 | 1.6 | 0.00 | 0.00 | 0.00 | 61 | 1012.6 |
| 20260507181305 | 16 | 283 | 0.0 | 0.0 | 0.00 | 0.00 | 0.00 | 62 | 1012.7 |
| 20260507180805 | 17 | 279 | 0.0 | 1.6 | 0.00 | 0.00 | 0.00 | 61 | 1012.7 |
| 20260507180305 | 17 | 320 | 0.0 | 1.6 | 0.00 | 0.00 | 0.00 | 60 | 1012.8 |
| 20260507174805 | 18 | 257 | 0.0 | 3.2 | 0.00 | 0.00 | 0.00 | 56 | 1012.3 |
| 20260507173805 | 18 | 236 | 0.0 | 4.8 | 0.00 | 0.00 | 0.00 | 54 | 1012.1 |
| 20260507173306 | 18 | 155 | 0.0 | 4.8 | 0.00 | 0.00 | 0.00 | 54 | 1012.2 |
| 20260507171805 | 19 | 244 | 1.6 | 8.0 | 0.00 | 0.00 | 0.00 | 52 | 1012.1 |
| 20260507170806 | 19 | 263 | 3.2 | 9.7 | 0.00 | 0.00 | 0.00 | 52 | 1012.2 |
| 20260507170306 | 19 | 285 | 3.2 | 9.7 | 0.00 | 0.00 | 0.00 | 52 | 1012.2 |
| 20260507164804 | 20 | 284 | 1.6 | 9.7 | 0.00 | 0.00 | 0.00 | 51 | 1012.1 |
| 20260507164306 | 20 | 240 | 3.2 | 9.7 | 0.00 | 0.00 | 0.00 | 50 | 1012.2 |
| 20260507163805 | 20 | 268 | 1.6 | 11.3 | 0.00 | 0.00 | 0.00 | 51 | 1012.0 |
| 20260507163304 | 20 | 194 | 3.2 | 11.3 | 0.00 | 0.00 | 0.00 | 51 | 1012.1 |
| 20260507161805 | 20 | 274 | 3.2 | 9.7 | 0.00 | 0.00 | 0.00 | 50 | 1011.9 |
| 20260507161305 | 20 | 229 | 3.2 | 9.7 | 0.00 | 0.00 | 0.00 | 51 | 1011.9 |
| 20260507160806 | 20 | 247 | 3.2 | 9.7 | 0.00 | 0.00 | 0.00 | 50 | 1012.0 |
| 20260507160305 | 20 | 235 | 3.2 | 12.9 | 0.00 | 0.00 | 0.00 | 51 | 1012.0 |
| 20260507154805 | 20 | 236 | 3.2 | 16.1 | 0.00 | 0.00 | 0.00 | 51 | 1011.8 |
| 20260507154305 | 20 | 219 | 3.2 | 16.1 | 0.00 | 0.00 | 0.00 | 52 | 1011.8 |
| 20260507153805 | 20 | 200 | 3.2 | 14.5 | 0.00 | 0.00 | 0.00 | 52 | 1011.7 |
| 20260507153304 | 20 | 217 | 3.2 | 12.9 | 0.00 | 0.00 | 0.00 | 52 | 1011.5 |
| 20260507151804 | 18 | 227 | 4.8 | 14.5 | 0.00 | 0.00 | 0.00 | 55 | 1012.2 |
| 20260507151305 | 18 | 241 | 4.8 | 14.5 | 0.00 | 0.00 | 0.00 | 55 | 1012.1 |
| 20260507150804 | 19 | 195 | 1.6 | 12.9 | 0.00 | 0.00 | 0.00 | 56 | 1012.0 |
| 20260507150304 | 18 | 299 | 3.2 | 9.7 | 0.00 | 0.00 | 0.00 | 59 | 1012.1 |
| 20260507144804 | 18 | 227 | 3.2 | 11.3 | 0.00 | 0.00 | 0.00 | 58 | 1011.9 |
| 20260507144305 | 20 | 220 | 3.2 | 9.7 | 0.00 | 0.00 | 0.00 | 56 | 1011.8 |
| 20260507143304 | 18 | 149 | 1.6 | 11.3 | 0.00 | 0.00 | 0.00 | 60 | 1012.1 |
| 20260507141804 | 18 | 115 | 1.6 | 8.0 | 0.00 | 0.00 | 0.00 | 59 | 1012.0 |
| 20260507141304 | 18 | 174 | 1.6 | 8.0 | 0.00 | 0.00 | 0.00 | 58 | 1012.0 |
| 20260507140806 | 18 | 126 | 1.6 | 3.2 | 0.00 | 0.00 | 0.00 | 59 | 1012.0 |
| 20260507140305 | 18 | 169 | 1.6 | 8.0 | 0.00 | 0.00 | 0.00 | 59 | 1012.1 |
| 20260507134806 | 18 | 131 | 3.2 | 8.0 | 0.00 | 0.00 | 0.00 | 60 | 1012.0 |
| 20260507134305 | 18 | 203 | 4.8 | 9.7 | 0.00 | 0.00 | 0.00 | 58 | 1012.3 |
| 20260507133804 | 18 | 207 | 1.6 | 8.0 | 0.00 | 0.00 | 0.00 | 61 | 1012.4 |
| 20260507133305 | 18 | 175 | 0.0 | 8.0 | 0.00 | 0.00 | 0.00 | 60 | 1012.5 |
| 20260507131304 | 20 | 151 | 1.6 | 3.2 | 0.00 | 0.00 | 0.00 | 53 | 1012.3 |
| 20260507130805 | 20 | 52 | 1.6 | 1.6 | 0.00 | 0.00 | 0.00 | 51 | 1011.9 |
| 20260507130306 | 20 | 295 | 0.0 | 8.0 | 0.00 | 0.00 | 0.00 | 52 | 1012.3 |
| 20260507124805 | 20 | 49 | 1.6 | 4.8 | 0.00 | 0.00 | 0.00 | 50 | 1012.3 |
| 20260507123804 | 20 | 305 | 1.6 | 3.2 | 0.00 | 0.00 | 0.00 | 48 | 1012.5 |
| 20260507123304 | 20 | 260 | 0.0 | 4.8 | 0.00 | 0.00 | 0.00 | 51 | 1012.5 |
| 20260507121805 | 20 | 249 | 1.6 | 9.7 | 0.00 | 0.00 | 0.00 | 48 | 1012.2 |
| 20260507121305 | 21 | 266 | 1.6 | 8.0 | 0.00 | 0.00 | 0.00 | 48 | 1012.1 |
| 20260507120805 | 20 | 123 | 1.6 | 3.2 | 0.00 | 0.00 | 0.00 | 49 | 1012.1 |
| 20260507120304 | 20 | 269 | 1.6 | 8.0 | 0.00 | 0.00 | 0.00 | 49 | 1012.4 |
| 20260507114804 | 20 | 2 | 3.2 | 9.7 | 0.00 | 0.00 | 0.00 | 50 | 1012.0 |
| 20260507114304 | 20 | 313 | 0.0 | 4.8 | 0.00 | 0.00 | 0.00 | 48 | 1012.3 |
| 20260507113304 | 21 | 330 | 1.6 | 16.1 | 0.00 | 0.00 | 0.00 | 44 | 1012.2 |
| 20260507111806 | 21 | 339 | 3.2 | 9.7 | 0.00 | 0.00 | 0.00 | 46 | 1012.0 |
| 20260507110804 | 20 | 33 | 4.8 | 16.1 | 0.00 | 0.00 | 0.00 | 45 | 1012.4 |
| 20260507104804 | 20 | 20 | 3.2 | 9.7 | 0.00 | 0.00 | 0.00 | 46 | 1012.3 |
| 20260507104306 | 20 | 321 | 3.2 | 12.9 | 0.00 | 0.00 | 0.00 | 47 | 1012.4 |
| 20260507103805 | 20 | 14 | 3.2 | 12.9 | 0.00 | 0.00 | 0.00 | 46 | 1012.8 |
| 20260507101805 | 19 | 12 | 8.0 | 14.5 | 0.00 | 0.00 | 0.00 | 49 | 1012.8 |
| 20260507100805 | 20 | 14 | 3.2 | 9.7 | 0.00 | 0.00 | 0.00 | 46 | 1012.9 |
| 20260507100304 | 20 | 73 | 4.8 | 12.9 | 0.00 | 0.00 | 0.00 | 46 | 1012.8 |
| 20260507094804 | 20 | 34 | 1.6 | 8.0 | 0.00 | 0.00 | 0.00 | 49 | 1013.0 |
| 20260507094304 | 19 | 343 | 3.2 | 9.7 | 0.00 | 0.00 | 0.00 | 49 | 1013.1 |
| 20260507093804 | 18 | 192 | 3.2 | 9.7 | 0.00 | 0.00 | 0.00 | 53 | 1013.2 |
| 20260507091804 | 18 | 4 | 3.2 | 12.9 | 0.00 | 0.00 | 0.00 | 55 | 1013.0 |
| 20260507090304 | 19 | 24 | 1.6 | 12.9 | 0.00 | 0.00 | 0.00 | 54 | 1013.0 |
| 20260507084805 | 18 | 35 | 4.8 | 9.7 | 0.00 | 0.00 | 0.00 | 56 | 1013.0 |
| 20260507084306 | 17 | 22 | 4.8 | 11.3 | 0.00 | 0.00 | 0.00 | 56 | 1012.9 |
| 20260507083804 | 17 | 14 | 1.6 | 12.9 | 0.00 | 0.00 | 0.00 | 58 | 1013.0 |
| 20260507081305 | 17 | 331 | 3.2 | 8.0 | 0.00 | 0.00 | 0.00 | 57 | 1013.1 |
| 20260507080804 | 17 | 252 | 3.2 | 9.7 | 0.00 | 0.00 | 0.00 | 57 | 1013.4 |
| 20260507080304 | 17 | 36 | 4.8 | 11.3 | 0.00 | 0.00 | 0.00 | 55 | 1013.2 |
| 20260507074804 | 16 | 61 | 4.8 | 8.0 | 0.00 | 0.00 | 0.00 | 61 | 1013.2 |
| 20260507074305 | 16 | 44 | 4.8 | 9.7 | 0.00 | 0.00 | 0.00 | 60 | 1013.1 |
| 20260507073804 | 16 | 38 | 1.6 | 8.0 | 0.00 | 0.00 | 0.00 | 63 | 1013.2 |
| 20260507073305 | 16 | 318 | 1.6 | 8.0 | 0.00 | 0.00 | 0.00 | 64 | 1013.1 |
| 20260507071805 | 16 | 290 | 1.6 | 4.8 | 0.00 | 0.00 | 0.00 | 72 | 1013.3 |
| 20260507071305 | 16 | 67 | 0.0 | 4.8 | 0.00 | 0.00 | 0.00 | 73 | 1013.4 |
| 20260507070804 | 15 | 355 | 1.6 | 4.8 | 0.00 | 0.00 | 0.00 | 74 | 1013.2 |
| 20260507064804 | 16 | 54 | 3.2 | 4.8 | 0.00 | 0.00 | 0.00 | 75 | 1013.0 |
| 20260507064304 | 15 | 68 | 0.0 | 8.0 | 0.00 | 0.00 | 0.00 | 79 | 1013.0 |
| 20260507063804 | 15 | 28 | 1.6 | 3.2 | 0.00 | 0.00 | 0.00 | 79 | 1013.2 |
| 20260507063305 | 15 | 292 | 1.6 | 4.8 | 0.00 | 0.00 | 0.00 | 78 | 1013.0 |
| 20260507061804 | 13 | 157 | 0.0 | 3.2 | 0.00 | 0.00 | 0.00 | 84 | 1013.3 |
| 20260507061304 | 12 | 82 | 1.6 | 4.8 | 0.00 | 0.00 | 0.00 | 87 | 1013.6 |
| 20260507060804 | 13 | 32 | 1.6 | 3.2 | 0.00 | 0.00 | 0.00 | 87 | 1013.5 |
| 20260507054804 | 11 | 79 | 0.0 | 3.2 | 0.00 | 0.00 | 0.00 | 92 | 1013.4 |
| 20260507054304 | 11 | 50 | 1.6 | 3.2 | 0.00 | 0.00 | 0.00 | 93 | 1013.5 |
| 20260507053803 | 10 | 101 | 1.6 | 4.8 | 0.00 | 0.00 | 0.00 | 94 | 1013.7 |
| 20260507051304 | 8 | 67 | 1.6 | 3.2 | 0.00 | 0.00 | 0.00 | 97 | 1013.6 |
| 20260507050304 | 8 | 153 | 1.6 | 3.2 | 0.00 | 0.00 | 0.00 | 97 | 1013.6 |
| 20260507044804 | 6 | 70 | 1.6 | 3.2 | 0.00 | 0.00 | 0.00 | 97 | 1013.8 |
| 20260507043304 | 6 | 70 | 1.6 | 3.2 | 0.00 | 0.00 | 0.00 | 97 | 1014.2 |
| 20260507041804 | 6 | 82 | 0.0 | 3.2 | 0.00 | 0.00 | 0.00 | 97 | 1014.1 |
| 20260507040804 | 6 | 70 | 1.6 | 3.2 | 0.00 | 0.00 | 0.00 | 97 | 1014.1 |
| 20260507040304 | 6 | 76 | 1.6 | 3.2 | 0.00 | 0.00 | 0.00 | 97 | 1014.2 |
| 20260507034804 | 6 | 65 | 1.6 | 3.2 | 0.00 | 0.00 | 0.00 | 97 | 1014.0 |
| 20260507033805 | 6 | 66 | 1.6 | 1.6 | 0.00 | 0.00 | 0.00 | 97 | 1014.1 |
| 20260507033304 | 6 | 135 | 0.0 | 1.6 | 0.00 | 0.00 | 0.00 | 97 | 1014.0 |
| 20260507031804 | 7 | 132 | 1.6 | 1.6 | 0.00 | 0.00 | 0.00 | 97 | 1014.1 |
| 20260507030304 | 7 | 150 | 0.0 | 3.2 | 0.00 | 0.00 | 0.00 | 96 | 1014.0 |
| 20260507024804 | 7 | 100 | 1.6 | 3.2 | 0.00 | 0.00 | 0.00 | 97 | 1013.8 |
| 20260507023303 | 7 | 144 | 0.0 | 3.2 | 0.00 | 0.00 | 0.00 | 96 | 1014.1 |
| 20260507021804 | 7 | 75 | 1.6 | 3.2 | 0.00 | 0.00 | 0.00 | 96 | 1014.0 |
| 20260507021304 | 7 | 103 | 1.6 | 3.2 | 0.00 | 0.00 | 0.00 | 96 | 1014.1 |
| 20260507020804 | 7 | 92 | 0.0 | 1.6 | 0.00 | 0.00 | 0.00 | 96 | 1014.0 |
| 20260507020304 | 8 | 111 | 1.6 | 3.2 | 0.00 | 0.00 | 0.00 | 96 | 1014.0 |
| 20260507014307 | 7 | 107 | 0.0 | 3.2 | 0.00 | 0.00 | 0.00 | 96 | 1014.0 |
| 20260507013805 | 7 | 81 | 3.2 | 3.2 | 0.00 | 0.00 | 0.00 | 96 | 1014.0 |
| 20260507013305 | 7 | 116 | 0.0 | 3.2 | 0.00 | 0.00 | 0.00 | 96 | 1014.1 |
| 20260507011805 | 8 | 95 | 0.0 | 1.6 | 0.00 | 0.03 | 0.00 | 95 | 1013.9 |
| 20260507011306 | 8 | 95 | 3.2 | 3.2 | 0.00 | 0.08 | 0.00 | 95 | 1014.1 |
| 20260507010806 | 8 | 91 | 1.6 | 3.2 | 0.00 | 0.18 | 0.00 | 95 | 1013.9 |
| 20260507010306 | 8 | 57 | 0.0 | 3.2 | 0.00 | 0.41 | 0.00 | 95 | 1013.9 |
| 20260507004806 | 8 | 85 | 1.6 | 1.6 | 0.00 | 1.22 | 0.00 | 94 | 1014.2 |
| 20260507004306 | 8 | 106 | 0.0 | 1.6 | 0.00 | 1.32 | 0.00 | 94 | 1013.9 |
| 20260507003805 | 8 | 27 | 0.0 | 3.2 | 0.00 | 1.47 | 0.00 | 93 | 1014.0 |
| 20260507003305 | 9 | 101 | 0.0 | 3.2 | 0.00 | 1.63 | 0.00 | 93 | 1014.1 |
| 20260507001806 | 10 | 124 | 1.6 | 3.2 | 0.00 | 1.70 | 0.00 | 92 | 1014.0 |
| 20260507001305 | 10 | 116 | 0.0 | 1.6 | 0.00 | 1.70 | 0.00 | 92 | 1013.8 |
| 20260507000806 | 10 | 241 | 0.0 | 3.2 | 0.00 | 1.75 | 0.00 | 92 | 1013.8 |
| 20260507000306 | 10 | 277 | 1.6 | 8.0 | 0.00 | 1.88 | 0.00 | 93 | 1014.0 |
| 20260506234807 | 9 | 23 | 1.6 | 3.2 | 0.00 | 1.96 | 0.00 | 94 | 1014.1 |
| 20260506234305 | 8 | 169 | 1.6 | 3.2 | 0.00 | 1.96 | 0.00 | 93 | 1014.1 |
| 20260506233805 | 9 | 138 | 1.6 | 3.2 | 0.00 | 1.96 | 0.00 | 93 | 1014.0 |
| 20260506233305 | 9 | 131 | 1.6 | 3.2 | 0.00 | 1.96 | 0.00 | 92 | 1014.2 |
| 20260506231805 | 10 | 136 | 1.6 | 3.2 | 0.00 | 1.96 | 0.00 | 89 | 1014.2 |
| 20260506231305 | 10 | 78 | 1.6 | 3.2 | 0.00 | 1.96 | 0.00 | 88 | 1014.1 |
| 20260506230305 | 11 | 60 | 1.6 | 4.8 | 0.00 | 1.96 | 0.00 | 87 | 1014.2 |
| 20260506224806 | 11 | 190 | 1.6 | 9.7 | 0.00 | 1.96 | 0.00 | 85 | 1014.0 |
| 20260506224305 | 11 | 70 | 1.6 | 4.8 | 0.00 | 1.96 | 0.00 | 85 | 1014.1 |
| 20260506223805 | 11 | 31 | 3.2 | 9.7 | 0.00 | 1.96 | 0.00 | 84 | 1014.0 |
| 20260506223305 | 11 | 290 | 1.6 | 16.1 | 0.00 | 1.96 | 0.00 | 84 | 1014.1 |
| 20260506221805 | 10 | 191 | 1.6 | 3.2 | 0.00 | 1.96 | 0.00 | 86 | 1014.1 |
| 20260506221305 | 10 | 213 | 1.6 | 3.2 | 0.00 | 1.96 | 0.00 | 86 | 1014.1 |
| 20260506220805 | 10 | 79 | 0.0 | 4.8 | 0.00 | 1.96 | 0.00 | 87 | 1014.0 |
| 20260506220306 | 10 | 225 | 0.0 | 8.0 | 0.00 | 1.96 | 0.00 | 86 | 1014.2 |
| 20260506214805 | 8 | 140 | 1.6 | 3.2 | 0.00 | 1.96 | 1.96 | 89 | 1014.2 |
| 20260506214305 | 8 | 115 | 1.6 | 3.2 | 0.00 | 1.96 | 1.96 | 90 | 1014.3 |